Time,TemperatureF,DewpointF,PressureIn,WindDirection,WindDirectionDegrees,WindSpeedMPH,WindSpeedGustMPH,Humidity,HourlyPrecipIn,Conditions,Clouds,dailyrainin,SoftwareType,DateUTC
2015-08-31 00:02:00,72.3,66.2,30.07,West,274,0.0,1.0,81,0.00,,,0.00,meteobridge,2015-08-31 04:02:00,
2015-08-31 00:07:00,72.1,66.4,30.07,NNW,345,0.0,0.0,82,0.00,,,0.00,meteobridge,2015-08-31 04:07:00,
2015-08-31 00:12:00,71.8,66.0,30.07,NNW,345,0.0,0.0,82,0.00,,,0.00,meteobridge,2015-08-31 04:12:00,
2015-08-31 00:17:00,71.6,65.8,30.07,NNW,345,0.0,0.0,82,0.00,,,0.00,meteobridge,2015-08-31 04:17:00,
2015-08-31 00:22:00,71.4,65.7,30.07,NNW,345,0.0,0.0,82,0.00,,,0.00,meteobridge,2015-08-31 04:22:00,
2015-08-31 00:28:00,71.2,65.5,30.07,NNW,345,0.0,0.0,82,0.00,,,0.00,meteobridge,2015-08-31 04:28:00,
2015-08-31 00:33:00,71.1,65.7,30.07,NNW,345,0.0,0.0,83,0.00,,,0.00,meteobridge,2015-08-31 04:33:00,
2015-08-31 00:38:00,71.1,65.7,30.06,NNW,345,0.0,0.0,83,0.00,,,0.00,meteobridge,2015-08-31 04:38:00,
2015-08-31 00:43:00,71.1,65.7,30.06,NNW,345,0.0,0.0,83,0.00,,,0.00,meteobridge,2015-08-31 04:43:00,
2015-08-31 00:48:00,70.9,65.5,30.07,NNW,345,0.0,0.0,83,0.00,,,0.00,meteobridge,2015-08-31 04:48:00,
2015-08-31 00:53:00,70.9,65.5,30.07,NNW,345,0.0,0.0,83,0.00,,,0.00,meteobridge,2015-08-31 04:53:00,
2015-08-31 00:58:00,70.7,65.3,30.07,NNW,345,0.0,0.0,83,0.00,,,0.00,meteobridge,2015-08-31 04:58:00,
2015-08-31 01:03:00,70.5,65.5,30.06,NNW,345,0.0,0.0,84,0.00,,,0.00,meteobridge,2015-08-31 05:03:00,
2015-08-31 01:08:00,70.5,65.5,30.06,NNW,345,0.0,0.0,84,0.00,,,0.00,meteobridge,2015-08-31 05:08:00,
2015-08-31 01:13:00,70.3,65.3,30.06,NNW,345,0.0,0.0,84,0.00,,,0.00,meteobridge,2015-08-31 05:13:00,
2015-08-31 01:18:00,70.2,65.1,30.06,NNW,345,0.0,0.0,84,0.00,,,0.00,meteobridge,2015-08-31 05:18:00,
2015-08-31 01:23:00,70.2,65.5,30.06,NNW,345,0.0,0.0,85,0.00,,,0.00,meteobridge,2015-08-31 05:23:00,
2015-08-31 01:28:00,70.2,65.5,30.06,NNW,345,0.0,0.0,85,0.00,,,0.00,meteobridge,2015-08-31 05:28:00,
2015-08-31 01:33:00,70.0,65.3,30.06,NNW,345,0.0,0.0,85,0.00,,,0.00,meteobridge,2015-08-31 05:33:00,
2015-08-31 01:38:00,70.0,65.3,30.06,NNW,345,0.0,0.0,85,0.00,,,0.00,meteobridge,2015-08-31 05:38:00,
2015-08-31 01:44:00,70.0,65.3,30.06,NNW,345,0.0,0.0,85,0.00,,,0.00,meteobridge,2015-08-31 05:44:00,
2015-08-31 01:49:00,69.8,65.1,30.06,NNW,345,0.0,0.0,85,0.00,,,0.00,meteobridge,2015-08-31 05:49:00,
2015-08-31 01:54:00,69.6,65.3,30.06,NNW,345,0.0,0.0,86,0.00,,,0.00,meteobridge,2015-08-31 05:54:00,
2015-08-31 01:59:00,69.6,65.3,30.06,NNW,345,0.0,0.0,86,0.00,,,0.00,meteobridge,2015-08-31 05:59:00,
2015-08-31 02:04:00,69.6,65.3,30.06,NNW,345,0.0,0.0,86,0.00,,,0.00,meteobridge,2015-08-31 06:04:00,
2015-08-31 02:09:00,69.6,65.7,30.05,NNW,345,0.0,0.0,87,0.00,,,0.00,meteobridge,2015-08-31 06:09:00,
2015-08-31 02:14:00,69.6,65.7,30.06,NNW,345,0.0,0.0,87,0.00,,,0.00,meteobridge,2015-08-31 06:14:00,
2015-08-31 02:19:00,69.6,65.7,30.06,NNW,345,0.0,0.0,87,0.00,,,0.00,meteobridge,2015-08-31 06:19:00,
2015-08-31 02:24:00,69.6,65.7,30.06,NNW,345,0.0,0.0,87,0.00,,,0.00,meteobridge,2015-08-31 06:24:00,
2015-08-31 02:29:00,69.6,65.7,30.06,NNW,345,0.0,0.0,87,0.00,,,0.00,meteobridge,2015-08-31 06:29:00,
2015-08-31 02:34:00,69.8,65.8,30.06,NNW,345,0.0,0.0,87,0.00,,,0.00,meteobridge,2015-08-31 06:34:00,
2015-08-31 02:39:00,70.0,66.0,30.06,NNW,345,0.0,0.0,87,0.00,,,0.00,meteobridge,2015-08-31 06:39:00,
2015-08-31 02:44:00,70.0,66.0,30.06,NNW,345,0.0,0.0,87,0.00,,,0.00,meteobridge,2015-08-31 06:44:00,
2015-08-31 02:49:00,70.0,65.7,30.06,NNW,345,0.0,0.0,86,0.00,,,0.00,meteobridge,2015-08-31 06:49:00,
2015-08-31 02:54:00,70.0,65.7,30.06,NNW,345,0.0,0.0,86,0.00,,,0.00,meteobridge,2015-08-31 06:54:00,
2015-08-31 03:00:00,70.2,65.8,30.06,NNW,345,0.0,0.0,86,0.00,,,0.00,meteobridge,2015-08-31 07:00:00,
2015-08-31 03:05:00,70.2,66.0,30.06,NNW,345,0.0,0.0,87,0.02,,,0.02,meteobridge,2015-08-31 07:05:00,
2015-08-31 03:10:00,70.0,66.6,30.06,NNW,345,0.0,0.0,89,0.02,,,0.02,meteobridge,2015-08-31 07:10:00,
2015-08-31 03:15:00,69.4,66.0,30.06,NNW,345,0.0,0.0,89,0.03,,,0.03,meteobridge,2015-08-31 07:15:00,
2015-08-31 03:20:00,68.9,65.8,30.06,NNW,345,0.0,0.0,90,0.04,,,0.04,meteobridge,2015-08-31 07:20:00,
2015-08-31 03:25:00,68.7,66.0,30.05,NNW,345,0.0,0.0,91,0.05,,,0.05,meteobridge,2015-08-31 07:25:00,
2015-08-31 03:30:00,68.5,65.8,30.05,NNW,345,0.0,0.0,91,0.05,,,0.05,meteobridge,2015-08-31 07:30:00,
2015-08-31 03:35:00,68.4,66.0,30.05,NNW,345,0.0,0.0,92,0.05,,,0.05,meteobridge,2015-08-31 07:35:00,
2015-08-31 03:41:00,68.4,66.0,30.05,NNW,345,0.0,0.0,92,0.05,,,0.05,meteobridge,2015-08-31 07:41:00,
2015-08-31 03:46:00,68.2,66.0,30.05,NNW,345,0.0,0.0,93,0.06,,,0.06,meteobridge,2015-08-31 07:46:00,
2015-08-31 03:51:00,68.2,66.0,30.05,NNW,346,0.0,0.0,93,0.06,,,0.06,meteobridge,2015-08-31 07:51:00,
2015-08-31 03:56:00,68.2,66.0,30.05,NNW,346,0.0,0.0,93,0.07,,,0.07,meteobridge,2015-08-31 07:56:00,
2015-08-31 04:01:00,67.8,65.7,30.05,NNW,346,0.0,0.0,93,0.08,,,0.08,meteobridge,2015-08-31 08:01:00,
2015-08-31 04:06:00,67.8,66.0,30.04,NNW,346,0.0,0.0,94,0.07,,,0.09,meteobridge,2015-08-31 08:06:00,
2015-08-31 04:11:00,67.8,66.0,30.04,NNW,346,0.0,0.0,94,0.07,,,0.10,meteobridge,2015-08-31 08:11:00,
2015-08-31 04:16:00,67.6,65.8,30.05,NNW,346,0.0,0.0,94,0.06,,,0.10,meteobridge,2015-08-31 08:16:00,
2015-08-31 04:21:00,67.8,66.0,30.05,NNW,346,0.0,0.0,94,0.06,,,0.11,meteobridge,2015-08-31 08:21:00,
2015-08-31 04:26:00,67.8,66.0,30.04,NNW,346,0.0,0.0,94,0.06,,,0.11,meteobridge,2015-08-31 08:26:00,
2015-08-31 04:31:00,67.8,66.4,30.04,NW,317,0.0,1.0,95,0.07,,,0.12,meteobridge,2015-08-31 08:31:00,
2015-08-31 04:36:00,67.6,66.2,30.05,NW,317,0.0,0.0,95,0.08,,,0.13,meteobridge,2015-08-31 08:36:00,
2015-08-31 04:41:00,67.6,66.2,30.04,NW,317,0.0,0.0,95,0.08,,,0.13,meteobridge,2015-08-31 08:41:00,
2015-08-31 04:46:00,67.5,66.0,30.04,NW,311,0.0,0.0,95,0.07,,,0.13,meteobridge,2015-08-31 08:46:00,
2015-08-31 04:52:00,67.5,66.0,30.05,NW,311,0.0,0.0,95,0.06,,,0.13,meteobridge,2015-08-31 08:52:00,
2015-08-31 04:57:00,67.5,66.0,30.04,East,79,0.0,1.0,95,0.07,,,0.14,meteobridge,2015-08-31 08:57:00,
2015-08-31 05:02:00,67.3,65.8,30.04,East,93,0.0,1.0,95,0.06,,,0.14,meteobridge,2015-08-31 09:02:00,
2015-08-31 05:07:00,67.3,65.8,30.04,East,93,0.0,0.0,95,0.05,,,0.14,meteobridge,2015-08-31 09:07:00,
2015-08-31 05:12:00,67.3,65.8,30.04,East,93,0.0,0.0,95,0.04,,,0.14,meteobridge,2015-08-31 09:12:00,
2015-08-31 05:18:00,67.3,65.8,30.04,ENE,77,0.9,2.0,95,0.03,,,0.14,meteobridge,2015-08-31 09:18:00,
2015-08-31 05:23:00,67.3,65.8,30.04,East,79,0.0,0.0,95,0.03,,,0.14,meteobridge,2015-08-31 09:23:00,
2015-08-31 05:28:00,67.3,65.8,30.03,East,79,0.0,1.0,95,0.02,,,0.14,meteobridge,2015-08-31 09:28:00,
2015-08-31 05:34:00,67.3,65.8,30.03,East,79,0.0,0.0,95,0.01,,,0.14,meteobridge,2015-08-31 09:34:00,
2015-08-31 05:39:00,67.3,65.8,30.03,East,79,0.0,0.0,95,0.01,,,0.14,meteobridge,2015-08-31 09:39:00,
2015-08-31 05:45:00,67.3,65.8,30.03,East,79,0.0,0.0,95,0.01,,,0.14,meteobridge,2015-08-31 09:45:00,
2015-08-31 05:50:00,67.5,66.2,30.03,East,79,0.0,0.0,96,0.01,,,0.14,meteobridge,2015-08-31 09:50:00,
2015-08-31 05:55:00,67.5,66.2,30.04,East,79,0.0,0.0,96,0.00,,,0.14,meteobridge,2015-08-31 09:55:00,
2015-08-31 06:00:00,67.5,66.2,30.04,East,79,0.0,0.0,96,0.00,,,0.14,meteobridge,2015-08-31 10:00:00,
2015-08-31 06:06:00,67.5,66.2,30.04,East,79,0.0,0.0,96,0.00,,,0.14,meteobridge,2015-08-31 10:06:00,
2015-08-31 06:11:00,67.5,66.2,30.03,East,79,0.0,0.0,96,0.00,,,0.14,meteobridge,2015-08-31 10:11:00,
2015-08-31 06:16:00,67.5,66.2,30.03,East,79,0.0,1.0,96,0.00,,,0.14,meteobridge,2015-08-31 10:16:00,
2015-08-31 06:22:00,67.6,66.4,30.04,East,79,0.0,0.0,96,0.00,,,0.14,meteobridge,2015-08-31 10:22:00,
2015-08-31 06:27:00,67.6,66.4,30.04,East,79,0.0,0.0,96,0.00,,,0.14,meteobridge,2015-08-31 10:27:00,
2015-08-31 06:32:00,67.6,66.4,30.04,East,79,0.0,0.0,96,0.00,,,0.14,meteobridge,2015-08-31 10:32:00,
2015-08-31 06:38:00,67.6,66.4,30.04,East,79,0.0,0.0,96,0.00,,,0.14,meteobridge,2015-08-31 10:38:00,
2015-08-31 06:43:00,67.6,66.4,30.04,East,79,0.0,0.0,96,0.00,,,0.14,meteobridge,2015-08-31 10:43:00,
2015-08-31 06:48:00,67.6,66.4,30.04,East,79,0.0,1.0,96,0.00,,,0.14,meteobridge,2015-08-31 10:48:00,
2015-08-31 06:53:00,67.6,66.4,30.04,East,79,0.0,1.0,96,0.00,,,0.14,meteobridge,2015-08-31 10:53:00,
2015-08-31 06:59:00,67.6,66.4,30.05,East,84,0.0,0.0,96,0.00,,,0.14,meteobridge,2015-08-31 10:59:00,
2015-08-31 07:04:00,67.6,66.4,30.05,East,84,0.0,0.0,96,0.00,,,0.14,meteobridge,2015-08-31 11:04:00,
2015-08-31 07:09:00,67.8,66.6,30.05,East,84,0.0,0.0,96,0.01,,,0.15,meteobridge,2015-08-31 11:09:00,
2015-08-31 07:14:00,67.8,66.6,30.06,East,84,0.0,0.0,96,0.01,,,0.15,meteobridge,2015-08-31 11:14:00,
2015-08-31 07:20:00,67.8,66.6,30.05,East,84,0.0,0.0,96,0.01,,,0.15,meteobridge,2015-08-31 11:20:00,
2015-08-31 07:25:00,67.8,66.6,30.06,East,84,0.0,0.0,96,0.01,,,0.15,meteobridge,2015-08-31 11:25:00,
2015-08-31 07:30:00,67.8,66.6,30.06,East,84,0.0,0.0,96,0.01,,,0.15,meteobridge,2015-08-31 11:30:00,
2015-08-31 07:35:00,67.8,66.6,30.06,North,5,0.0,0.0,96,0.01,,,0.15,meteobridge,2015-08-31 11:35:00,
2015-08-31 07:41:00,67.8,66.6,30.06,North,5,0.0,0.0,96,0.01,,,0.15,meteobridge,2015-08-31 11:41:00,
2015-08-31 07:46:00,68.0,66.7,30.06,NNW,348,0.0,1.0,96,0.01,,,0.15,meteobridge,2015-08-31 11:46:00,
2015-08-31 07:51:00,68.0,66.7,30.06,ENE,78,0.0,1.0,96,0.01,,,0.15,meteobridge,2015-08-31 11:51:00,
2015-08-31 07:56:00,67.8,66.6,30.06,ENE,74,0.9,2.0,96,0.01,,,0.15,meteobridge,2015-08-31 11:56:00,
2015-08-31 08:01:00,67.8,66.6,30.06,East,92,0.0,1.0,96,0.01,,,0.15,meteobridge,2015-08-31 12:01:00,
2015-08-31 08:06:00,67.8,66.6,30.06,East,86,0.9,2.0,96,0.00,,,0.15,meteobridge,2015-08-31 12:06:00,
2015-08-31 08:11:00,67.8,66.6,30.06,ESE,105,0.0,3.0,96,0.00,,,0.15,meteobridge,2015-08-31 12:11:00,
2015-08-31 08:16:00,68.2,66.9,30.06,ESE,103,0.0,0.0,96,0.00,,,0.15,meteobridge,2015-08-31 12:16:00,
2015-08-31 08:21:00,68.2,66.9,30.06,ESE,103,0.0,0.0,96,0.00,,,0.15,meteobridge,2015-08-31 12:21:00,
2015-08-31 08:26:00,68.2,66.9,30.06,East,84,0.9,3.0,96,0.00,,,0.15,meteobridge,2015-08-31 12:26:00,
2015-08-31 08:31:00,68.2,66.9,30.06,East,79,0.9,2.0,96,0.00,,,0.15,meteobridge,2015-08-31 12:31:00,
2015-08-31 08:37:00,68.2,66.9,30.06,East,83,0.0,3.0,96,0.00,,,0.15,meteobridge,2015-08-31 12:37:00,
2015-08-31 08:42:00,68.4,67.1,30.06,ENE,77,0.0,0.0,96,0.00,,,0.15,meteobridge,2015-08-31 12:42:00,
2015-08-31 08:47:00,68.5,67.3,30.06,East,84,0.9,3.0,96,0.00,,,0.15,meteobridge,2015-08-31 12:47:00,
2015-08-31 08:52:00,68.5,67.3,30.06,ESE,107,0.0,1.0,96,0.00,,,0.15,meteobridge,2015-08-31 12:52:00,
2015-08-31 08:57:00,68.7,67.5,30.06,ENE,76,0.0,0.0,96,0.00,,,0.15,meteobridge,2015-08-31 12:57:00,
2015-08-31 09:02:00,68.9,67.6,30.06,ESE,106,0.0,3.0,96,0.00,,,0.15,meteobridge,2015-08-31 13:02:00,
2015-08-31 09:07:00,69.3,68.0,30.06,East,90,0.9,2.0,96,0.00,,,0.15,meteobridge,2015-08-31 13:07:00,
2015-08-31 09:12:00,69.3,68.0,30.06,ENE,74,0.0,1.0,96,0.00,,,0.15,meteobridge,2015-08-31 13:12:00,
2015-08-31 09:17:00,69.4,68.2,30.06,ENE,72,0.0,0.0,96,0.00,,,0.15,meteobridge,2015-08-31 13:17:00,
2015-08-31 09:22:00,69.6,68.4,30.07,ENE,72,0.0,0.0,96,0.00,,,0.15,meteobridge,2015-08-31 13:22:00,
2015-08-31 09:27:00,69.6,68.4,30.07,East,96,0.0,0.0,96,0.00,,,0.15,meteobridge,2015-08-31 13:27:00,
2015-08-31 09:32:00,69.6,68.4,30.07,East,98,0.0,1.0,96,0.00,,,0.15,meteobridge,2015-08-31 13:32:00,
2015-08-31 09:37:00,69.8,68.4,30.07,ENE,78,0.0,2.0,95,0.00,,,0.15,meteobridge,2015-08-31 13:37:00,
2015-08-31 09:42:00,69.6,68.2,30.07,NNW,327,0.0,0.0,95,0.00,,,0.15,meteobridge,2015-08-31 13:42:00,
2015-08-31 09:47:00,69.8,68.4,30.07,East,88,0.9,2.0,95,0.01,,,0.16,meteobridge,2015-08-31 13:47:00,
2015-08-31 09:52:00,70.0,68.5,30.07,East,85,0.9,1.0,95,0.01,,,0.16,meteobridge,2015-08-31 13:52:00,
2015-08-31 09:58:00,70.0,68.5,30.07,NE,35,0.0,1.0,95,0.01,,,0.16,meteobridge,2015-08-31 13:58:00,
2015-08-31 10:03:00,70.2,68.7,30.07,East,101,0.0,2.0,95,0.01,,,0.16,meteobridge,2015-08-31 14:03:00,
2015-08-31 10:08:00,70.3,68.9,30.07,East,82,0.9,3.0,95,0.01,,,0.16,meteobridge,2015-08-31 14:08:00,
2015-08-31 10:13:00,70.7,69.4,30.07,ENE,72,2.0,2.0,96,0.01,,,0.16,meteobridge,2015-08-31 14:13:00,
2015-08-31 10:18:00,71.1,69.6,30.07,ENE,75,0.0,1.0,95,0.01,,,0.16,meteobridge,2015-08-31 14:18:00,
2015-08-31 10:23:00,71.1,69.6,30.07,SE,132,2.0,3.0,95,0.01,,,0.16,meteobridge,2015-08-31 14:23:00,
2015-08-31 10:28:00,71.1,69.3,30.07,East,80,0.0,2.0,94,0.01,,,0.16,meteobridge,2015-08-31 14:28:00,
2015-08-31 10:33:00,71.2,69.8,30.07,East,96,0.0,1.0,95,0.01,,,0.16,meteobridge,2015-08-31 14:33:00,
2015-08-31 10:38:00,71.4,69.6,30.07,East,80,0.0,1.0,94,0.01,,,0.16,meteobridge,2015-08-31 14:38:00,
2015-08-31 10:43:00,71.6,69.8,30.07,ESE,122,0.0,3.0,94,0.01,,,0.16,meteobridge,2015-08-31 14:43:00,
2015-08-31 10:48:00,71.8,70.0,30.07,East,79,0.0,1.0,94,0.00,,,0.16,meteobridge,2015-08-31 14:48:00,
2015-08-31 10:53:00,72.0,69.8,30.07,East,83,2.0,2.0,93,0.00,,,0.16,meteobridge,2015-08-31 14:53:00,
2015-08-31 10:58:00,72.1,70.0,30.07,East,82,0.0,0.0,93,0.00,,,0.16,meteobridge,2015-08-31 14:58:00,
2015-08-31 11:03:00,72.7,70.2,30.07,East,82,0.9,3.0,92,0.00,,,0.16,meteobridge,2015-08-31 15:03:00,
2015-08-31 11:08:00,73.4,70.9,30.07,ESE,109,4.0,5.0,92,0.00,,,0.16,meteobridge,2015-08-31 15:08:00,
2015-08-31 11:13:00,73.6,70.5,30.07,NW,314,0.0,2.0,90,0.00,,,0.16,meteobridge,2015-08-31 15:13:00,
2015-08-31 11:19:00,73.9,71.1,30.07,ESE,104,0.0,1.0,91,0.00,,,0.16,meteobridge,2015-08-31 15:19:00,
2015-08-31 11:24:00,74.7,70.9,30.07,East,80,2.9,4.0,88,0.00,,,0.16,meteobridge,2015-08-31 15:24:00,
2015-08-31 11:29:00,75.4,72.0,30.07,ESE,110,2.0,3.0,89,0.00,,,0.16,meteobridge,2015-08-31 15:29:00,
2015-08-31 11:34:00,75.7,71.6,30.07,East,79,2.0,2.0,87,0.00,,,0.16,meteobridge,2015-08-31 15:34:00,
2015-08-31 11:39:00,75.6,71.1,30.07,East,91,0.9,4.0,86,0.00,,,0.16,meteobridge,2015-08-31 15:39:00,
2015-08-31 11:44:00,75.0,70.5,30.07,East,85,0.0,3.0,86,0.00,,,0.16,meteobridge,2015-08-31 15:44:00,
2015-08-31 11:49:00,74.7,70.2,30.08,East,91,2.9,3.0,86,0.00,,,0.16,meteobridge,2015-08-31 15:49:00,
2015-08-31 11:54:00,74.8,70.7,30.07,North,350,0.9,2.0,87,0.00,,,0.16,meteobridge,2015-08-31 15:54:00,
2015-08-31 11:59:00,76.1,72.0,30.07,NE,54,0.0,3.0,87,0.00,,,0.16,meteobridge,2015-08-31 15:59:00,
2015-08-31 12:04:00,77.0,71.8,30.07,East,90,2.0,2.0,84,0.00,,,0.16,meteobridge,2015-08-31 16:04:00,
2015-08-31 12:09:00,77.4,71.8,30.07,East,86,2.0,2.0,83,0.00,,,0.16,meteobridge,2015-08-31 16:09:00,
2015-08-31 12:14:00,76.8,70.9,30.07,ENE,73,0.9,2.0,82,0.00,,,0.16,meteobridge,2015-08-31 16:14:00,
2015-08-31 12:19:00,77.0,71.8,30.07,ESE,108,0.9,5.0,84,0.00,,,0.16,meteobridge,2015-08-31 16:19:00,
2015-08-31 12:24:00,77.2,70.9,30.07,ENE,77,2.0,5.0,81,0.00,,,0.16,meteobridge,2015-08-31 16:24:00,
2015-08-31 12:29:00,77.0,72.1,30.06,ENE,63,2.9,4.0,85,0.00,,,0.16,meteobridge,2015-08-31 16:29:00,
2015-08-31 12:40:00,77.7,71.8,30.06,NW,314,0.9,5.0,82,0.00,,,0.16,meteobridge,2015-08-31 16:40:00,
2015-08-31 12:45:00,78.3,71.6,30.06,East,79,0.0,4.0,80,0.00,,,0.16,meteobridge,2015-08-31 16:45:00,
2015-08-31 12:50:00,78.3,71.2,30.06,East,79,0.0,3.0,79,0.00,,,0.16,meteobridge,2015-08-31 16:50:00,
2015-08-31 12:55:00,78.1,71.1,30.06,East,79,0.0,3.0,79,0.00,,,0.16,meteobridge,2015-08-31 16:55:00,
2015-08-31 13:00:00,78.6,71.2,30.06,ENE,75,2.0,2.0,78,0.00,,,0.16,meteobridge,2015-08-31 17:00:00,
2015-08-31 13:05:00,79.2,71.2,30.06,NW,321,0.9,2.0,77,0.00,,,0.16,meteobridge,2015-08-31 17:05:00,
2015-08-31 13:10:00,79.0,71.1,30.06,ESE,108,0.0,3.0,77,0.00,,,0.16,meteobridge,2015-08-31 17:10:00,
2015-08-31 13:15:00,78.8,71.4,30.05,East,101,2.9,3.0,78,0.00,,,0.16,meteobridge,2015-08-31 17:15:00,
2015-08-31 13:20:00,79.5,71.6,30.05,ENE,75,2.0,4.0,77,0.00,,,0.16,meteobridge,2015-08-31 17:20:00,
2015-08-31 13:25:00,80.2,71.6,30.05,NNW,338,2.9,3.0,75,0.00,,,0.16,meteobridge,2015-08-31 17:25:00,
2015-08-31 13:30:00,80.4,71.4,30.05,East,96,0.0,4.0,74,0.00,,,0.16,meteobridge,2015-08-31 17:30:00,
2015-08-31 13:41:00,81.7,73.0,30.04,ESE,102,0.9,4.0,75,0.00,,,0.16,meteobridge,2015-08-31 17:41:00,
2015-08-31 13:46:00,81.0,71.4,30.04,East,82,0.9,4.0,73,0.00,,,0.16,meteobridge,2015-08-31 17:46:00,